Hit Tracker is now ESPN Home Run Tracker! Hit Tracker founder Greg Rybarczyk is now collaborating with the ESPN Stats & Information Group to continue tracking all MLB home runs, and helping baseball fans know "How Far It Really Went!™" Please credit any information on this site to ESPN Stats & Information Group. For more information and analysis on home runs, please contact founder Greg Rybarczyk. E-Mail ESPN Home Run Tracker
Main Page | Ballparks | Park Overlays | Glossary | Highlight Homers | Feedback | Bio | 3 Types of HR's | AAA Home Run Derby Last Updated: July 27, 2015, 11:25 pm PST
Welcome to the ESPN Home Run Tracker! Check out the ESPN MLB Scoreboard throughout the 2015 season! Contact us at grybar@hittrackeronline.com.
Season:
Ballpark detail for Busch Stadium
Ballpark # of Home Runs HR per game Avg.
True
Distance
Avg.
Speed
Off
Bat
Avg.
Std.
Dist.
Busch Stadium 65 1.55 398.4 103.3 395.2

Scatter Plot of Home Runs Busch Stadium
 Overlay Ballpark:
Without range rings   With range rings

2015 Season Home Runs for Busch Stadium
Click headers to sort
Date Video Path Hitter Hitter
Team
Pitcher Pitcher
Team
INN Ballpark Type/
Luck
True
Dist.
Speed
Off
Bat
Elev.
Angle
Horiz.
Angle
Apex Impact Due To: Std.
Dist.
#
Parks
Wind ^ Temp. Alt.
04/17/15 Video View Votto, Joey CIN Wacha, Michael STL 1 Busch Stadiu... PL 408 102.9 26.4 81.6 91 -4 0 0 411 28
06/13/15 Video View Gordon, Alex KC Lyons, Tyler STL 2 Busch Stadiu... PL 403 105.2 29.8 66.1 97 -4 3 1 403 30
06/30/15 Video View Grichuk, Randal STL Sale, Chris CHW 4 Busch Stadiu... PL 385 103.1 34.8 115.5 121 -4 3 2 384 30
04/30/15 Video View Adams, Matt STL Buchanan, David PHI 3 Busch Stadiu... PL 415 104.2 29.0 78.0 105 -3 0 1 417 30
05/26/15 Video View Ahmed, Nick ARI Garcia, Jaime STL 2 Busch Stadiu... JE/L 377 97.3 31.2 104.0 99 -3 1 1 378 23
04/18/15 Video View Heyward, Jason STL Bailey, Homer CIN 3 Busch Stadiu... JE 399 100.8 31.7 78.7 112 -2 1 2 398 25
04/29/15 Video View Howard, Ryan PHI Martinez, Carlos STL 4 Busch Stadiu... JE/L 372 96.9 29.7 74.4 89 -1 0 1 372 20
04/18/15 Video View Cozart, Zack CIN Martinez, Carlos STL 5 Busch Stadiu... JE 388 102.8 24.6 105.6 70 -1 0 0 388 25
05/31/15 Video View Peralta, Jhonny STL Anderson, Brett LAD 1 Busch Stadiu... PL 378 99.8 33.7 108.9 115 -1 -2 2 379 30
07/05/15 Video View Pham, Tommy STL Kennedy, Ian SD 3 Busch Stadiu... JE 371 103.4 23.9 112.7 60 -1 1 0 370 18
07/26/15 Video View Garcia, Adonis ATL Wacha, Michael STL 6 Busch Stadiu... JE/L 378 97.5 29.9 75.1 90 -1 2 1 377 18
05/05/15 Video View Carpenter, Matt STL Hendricks, Kyle CHC 5 Busch Stadiu... PL 379 108.4 23.8 54.3 59 0 0 0 378 30
05/25/15 Video View Trumbo, Mark ARI Siegrist, Kevin STL 8 Busch Stadiu... JE 422 108.0 20.6 88.7 63 0 0 0 422 23
05/26/15 Video View Grichuk, Randal STL Bradley, Archie ARI 2 Busch Stadiu... PL 413 108.7 21.9 79.0 65 0 0 1 413 28
05/27/15 Video View Wong, Kolten STL Collmenter, Josh ARI 1 Busch Stadiu... JE 365 97.9 28.9 65.6 77 0 1 1 363 23
05/27/15 Video View Heyward, Jason STL Ziegler, Brad ARI 9 Busch Stadiu... ND 393 105.0 29.9 56.9 87 0 1 1 391 30
05/31/15 Video View Pederson, Joc LAD Siegrist, Kevin STL 8 Busch Stadiu... PL 414 102.3 29.9 84.0 110 0 -1 1 414 25
06/03/15 Video View Parra, Gerardo MIL Lackey, John STL 3 Busch Stadiu... JE 385 102.7 24.9 72.7 69 0 0 1 385 23
06/13/15 Video View Perez, Salvador KC Lyons, Tyler STL 4 Busch Stadiu... PL 374 100.8 35.9 119.3 116 0 4 2 368 30
06/15/15 Video View Molina, Yadier STL May, Trevor MIN 4 Busch Stadiu... PL 385 104.6 24.5 111.6 65 0 0 0 384 29
06/15/15 Video View Reynolds, Mark STL May, Trevor MIN 4 Busch Stadiu... JE 389 102.3 25.9 107.3 74 0 1 0 388 28
06/26/15 Video View Garcia, Greg STL Strop, Pedro CHC 8 Busch Stadiu... JE 415 103.4 25.0 94.3 84 0 0 0 415 20
06/30/15 Video View Flowers, Tyler CHW Socolovich, Miguel STL 11 Busch Stadiu... PL 424 109.7 22.7 101.9 70 0 1 0 423 30
07/01/15 Video View Cabrera, Melky CHW Lackey, John STL 6 Busch Stadiu... JE 387 102.7 24.6 74.8 69 0 0 0 387 23
07/01/15 Video View Flowers, Tyler CHW Maness, Seth STL 9 Busch Stadiu... PL 439 110.0 23.5 98.8 81 0 0 1 438 30
07/02/15 Video View Solarte, Yangervis SD Cooney, Tim STL 2 Busch Stadiu... ND 412 108.5 25.9 113.1 78 0 1 1 411 30
07/02/15 Video View Ross, Tyson SD Cooney, Tim STL 5 Busch Stadiu... PL 375 97.9 31.4 70.3 95 0 1 1 373 23
07/02/15 Video View Venable, Will SD Villanueva, Carlos STL 11 Busch Stadiu... PL 405 101.1 32.1 82.3 118 0 1 2 403 23
07/03/15 Video View Gyorko, Jedd SD Wacha, Michael STL 7 Busch Stadiu... PL 377 99.3 32.8 113.8 101 0 2 1 374 29
07/04/15 Video View Solarte, Yangervis SD Martinez, Carlos STL 4 Busch Stadiu... PL 394 105.0 28.2 60.4 80 0 2 1 391 30
07/17/15 Video View Peralta, Jhonny STL Syndergaard, Noah NYM 6 Busch Stadiu... JE 375 97.7 29.9 108.8 87 0 2 1 372 19
07/19/15 Video View Wong, Kolten STL Familia, Jeurys NYM 13 Busch Stadiu... JE/L 350 100.2 39.4 65.2 140 0 2 3 346 25
07/23/15 Video View Grichuk, Randal STL Young, Chris KC 2 Busch Stadiu... JE 360 97.8 36.3 118.1 113 0 4 2 355 29
07/23/15 Video View Carpenter, Matt STL Young, Chris KC 3 Busch Stadiu... PL 392 101.1 34.5 74.7 125 0 4 2 386 29
05/15/15 Video View Peralta, Jhonny STL Nesbitt, Angel DET 7 Busch Stadiu... PL 398 107.5 25.2 115.8 70 1 0 1 397 30
05/15/15 Video View Heyward, Jason STL Gorzelanny, Tom DET 8 Busch Stadiu... PL 384 99.5 30.9 71.2 97 1 0 1 382 27
05/16/15 Video View Cabrera, Miguel DET Lyons, Tyler STL 1 Busch Stadiu... JE 419 105.0 23.0 88.0 73 1 0 0 418 22
05/16/15 Video View Carpenter, Matt STL Price, David DET 1 Busch Stadiu... JE 369 103.2 25.2 61.2 63 1 0 0 368 25
05/16/15 Video View Peralta, Jhonny STL Price, David DET 6 Busch Stadiu... PL 413 104.7 29.6 108.2 99 1 2 1 409 30
05/03/15 Video View Carpenter, Matt STL Worley, Vance PIT 4 Busch Stadiu... JE 413 103.1 24.1 92.3 74 1 0 0 411 16
04/19/15 Video View Carpenter, Matt STL Leake, Mike CIN 1 Busch Stadiu... PL 423 106.5 22.1 92.3 71 1 0 0 422 24
05/25/15 Video View Peralta, Jhonny STL Ramirez, J.C. ARI 10 Busch Stadiu... JE 367 96.7 32.5 112.0 96 1 1 1 364 20
05/27/15 Video View Trumbo, Mark ARI Lynn, Lance STL 4 Busch Stadiu... PL 434 104.8 27.5 90.8 101 1 2 1 431 28
07/18/15 Video View Cuddyer, Michael NYM Lackey, John STL 6 Busch Stadiu... JE 379 107.0 23.5 117.8 59 1 1 1 378 28
07/18/15 Video View Grichuk, Randal STL Torres, Alex NYM 8 Busch Stadiu... PL 412 102.5 25.8 96.3 82 1 1 1 409 21
07/27/15 Video View Wong, Kolten STL Iglesias, Raisel CIN 4 Busch Stadiu... PL 399 100.2 30.6 76.9 100 1 2 1 394 26
04/30/15 Video View Ruf, Darin PHI Cooney, Tim STL 3 Busch Stadiu... JE 406 102.3 25.9 99.1 89 2 0 1 404 18
05/04/15 Video View Rizzo, Anthony CHC Martinez, Carlos STL 2 Busch Stadiu... JE 417 105.3 22.9 84.8 71 2 0 0 414 19
05/30/15 Video View Grandal, Yasmani LAD Wacha, Michael STL 6 Busch Stadiu... PL 422 109.6 20.4 96.0 64 2 0 0 420 25
07/17/15 Video View Granderson, Curtis NYM Lynn, Lance STL 1 Busch Stadiu... ND 431 108.4 27.2 72.4 91 2 3 1 426 30
07/24/15 Video View Grichuk, Randal STL Banuelos, Manny ATL 2 Busch Stadiu... ND 413 104.9 31.6 111.0 109 2 3 2 405 30
05/15/15 Video View Cabrera, Miguel DET Harris, Mitch STL 7 Busch Stadiu... JE 413 101.2 27.6 86.3 93 3 0 1 409 16
05/16/15 Video View Bourjos, Peter STL Price, David DET 2 Busch Stadiu... PL 392 100.8 31.7 108.8 103 3 1 2 388 30
05/04/15 Video View Reynolds, Mark STL Wood, Travis CHC 1 Busch Stadiu... PL 391 102.1 26.9 109.6 74 3 1 0 387 30
05/04/15 Video View Russell, Addison CHC Maness, Seth STL 9 Busch Stadiu... PL 401 102.6 31.5 109.6 105 3 0 1 396 30
05/03/15 Video View Wong, Kolten STL Liz, Radhames PIT 14 Busch Stadiu... ND 439 111.1 27.0 68.2 91 4 1 1 432 30
05/06/15 Video View Rizzo, Anthony CHC Lynn, Lance STL 3 Busch Stadiu... PL 410 104.2 31.2 68.3 106 4 2 1 402 30
07/18/15 Video View Grichuk, Randal STL Torres, Carlos NYM 5 Busch Stadiu... JE 393 100.5 27.9 73.7 81 4 2 1 387 23
05/06/15 Video View Peralta, Jhonny STL Lester, Jon CHC 4 Busch Stadiu... ND 441 107.3 30.4 101.3 116 5 1 1 433 30
05/15/15 Video View Cespedes, Yoenis DET Martinez, Carlos STL 2 Busch Stadiu... PL 414 102.1 31.2 100.7 109 6 1 2 406 30
05/03/15 Video View Alvarez, Pedro PIT Tuivailala, Samuel STL 12 Busch Stadiu... PL 423 107.8 25.3 72.8 79 6 1 1 416 29
05/15/15 Video View Martinez, J.D. DET Harris, Mitch STL 7 Busch Stadiu... JE/L 349 102.7 41.1 115.9 154 10 0 3 336 11
05/17/15 Video View Wong, Kolten STL Simon, Alfredo DET 6 Busch Stadiu... ND 434 108.9 27.9 67.9 89 10 1 1 422 30
06/13/15 Video View Reynolds, Mark STL Guthrie, Jeremy KC 5 Busch Stadiu... PL/L 373 99.6 38.2 110.8 133 12 5 2 356 12
05/03/15 Video View Kang, Jung Ho PIT Rosenthal, Trevor STL 9 Busch Stadiu... PL 425 101.8 32.9 94.3 120 15 3 2 407 24


About HitTracker | Contact Us
© 2006-2015 HitTrackerOnline